[Iaude] MPEC C191: 2024 CK6 [a=2.02,e=0.50,i=9.6,H=26.4]

mpec at cfa.harvard.edu mpec at cfa.harvard.edu
Thu Feb 15 14:08:24 EST 2024


M.P.E.C. 2024-C191                            Issued 2024 February 15, 19:06 UT

     The Minor Planet Electronic Circulars contain information on unusual
         minor planets, routine data on comets and natural satellites,
         and occasional editorial announcements.  They are published
    on behalf of Division F of the International Astronomical Union by the
          Minor Planet Center, Smithsonian Astrophysical Observatory,
                          Cambridge, MA 02138, U.S.A.
			  
             Prepared using the Tamkin Foundation Computer Network

                              MPC at CFA.HARVARD.EDU
            URL https://www.minorplanetcenter.net/    ISSN 1523-6714

                                    2024 CK6                                    


Observations:
     K24C06K* C2024 02 14.24010907 57 42.080+14 58 04.32         20.04wXEC191F52
     K24C06K  C2024 02 14.25116307 58 00.074+15 01 32.67         19.93wXEC191F52
     K24C06K  C2024 02 14.27330807 58 36.301+15 08 32.15         19.93wXEC191F52
     K24C06K  C2024 02 14.43886708 03 07.141+16 00 19.60         19.95GVEC191F51
     K24C06K  C2024 02 14.43951308 03 08.218+16 00 31.65         19.77GVEC191F51
     K24C06K KB2024 02 14.78744 08 13 58.01 +17 47 51.5          19.4 GXEC191K19
     K24C06K KB2024 02 14.79897 08 14 18.68 +17 51 34.2          19.6 GXEC191K19
     K24C06K KB2024 02 14.95271 08 18 53.18 +18 40 16.4                VEC191204
     K24C06K KB2024 02 14.96245 08 19 10.76 +18 43 19.8                VEC191204
     K24C06K KB2024 02 14.97207 08 19 28.16 +18 46 21.1          19.9 GVEC191204
     K24C06K KB2024 02 15.06020808 22 11.16 +19 14 07.5          19.0 GXEC191958
     K24C06K KB2024 02 15.06582808 22 21.56 +19 15 53.2          19.3 GXEC191958
     K24C06K KB2024 02 15.07136208 22 31.70 +19 17 36.1          19.4 GXEC191958
     K24C06K KC2024 02 15.12930108 24 45.58 +19 36 34.4          19.8 GXEC191858
     K24C06K KC2024 02 15.13452908 24 55.24 +19 38 15.1          19.8 GXEC191858
     K24C06K  C2024 02 15.18433308 26 27.689+19 54 14.21         19.7 GVEC191H01
     K24C06K  C2024 02 15.18826808 26 34.950+19 55 29.31         19.4 GVEC191H01
     K24C06K  C2024 02 15.19911508 26 54.974+19 58 56.14         19.5 GVEC191H01
     K24C06K  C2024 02 15.20446408 27 04.833+20 00 37.85         19.6 GVEC191H01
     K24C06K KC2024 02 15.21939108 27 32.06 +20 05 15.9          19.6 GXEC191858
     K24C06K KC2024 02 15.22302508 27 38.79 +20 06 24.7          19.3 GXEC191858

Observer details:
204 Schiaparelli Observatory.  Observer L. Buzzi.  0.84-m f/3.5 reflector +
    CMO.
858 Tebbutt Observatory, Edgewood.  Observer F. B. Zoltowski.  0.51-m f/8.1
    Schmidt-Cassegrain + CCD.
958 Observatoire de Dax.  Observer P. Dupouy.  0.50-m f/4.5 Reflector + CMO.
F51 Pan-STARRS 1, Haleakala.  Observers J. Herman, T. Lowe, P. Minguez, A.
    Schultz, I. Smith.  Measurers K. Chambers, T. de Boer, J. Fairlamb, H.
    Gao, M. Huber, C.-C. Lin, E. Magnier, Y. Ramanjooloo, R. Wainscoat, R.
    Weryk.  1.8-m Ritchey-Chretien + CCD.
F52 Pan-STARRS 2, Haleakala.  Observers J. Herman, T. Lowe, P. Minguez, A.
    Schultz, I. Smith.  Measurers K. Chambers, T. de Boer, J. Fairlamb, H.
    Gao, M. Huber, C.-C. Lin, E. Magnier, Y. Ramanjooloo, R. Wainscoat, R.
    Weryk.  1.8-m Ritchey-Chretien + CCD.
H01 Magdalena Ridge Observatory, Socorro.  Observers W. H. Ryan, E. V. Ryan.
    Measurer W. H. Ryan.  2.4-m f/8.9 Ritchey-Chretien + CCD.
K19 PASTIS Observatory, Banon.  Observer C. Demeautis.  0.28-m f/2.2 reflector
    + CMO.

Orbital elements:
2024 CK6                                                 Earth MOID = 0.0276 AU
Epoch 2024 Mar. 31.0 TT = JDT 2460400.5                 Veres                   
M  16.35285              (2000.0)            P               Q                  
n   0.34210927     Peri.  356.60575     -0.78324275     -0.61424839             
a   2.0246944      Node   144.90860     +0.57427674     -0.77399138             
e   0.4991102      Incl.    9.62011     +0.23819533     -0.15374086             
P   2.88           H   26.42          G   0.15           U   8                  
Residuals in seconds of arc
240214 F52  0.9+  0.4+    240214 204  0.1-  0.1+    240215 858  0.1+  0.3+
240214 F52  0.6-  0.6-    240214 204  0.1-  0.2-    240215 H01  0.0   0.0
240214 F52  0.1+  0.2-    240214 204  0.1-  0.0     240215 H01  0.0   0.0
240214 F51  0.1-  0.1+    240215 958  0.7+  0.5-    240215 H01  0.1+  0.0
240214 F51  0.0   0.1+    240215 958  1.1+  0.4+    240215 H01  0.1-  0.1-
240214 K19  0.7-  0.5+    240215 958  0.2-  0.2+    240215 858  0.1-  0.3-
240214 K19  0.9-  1.4+    240215 858  0.5+  0.2+    240215 858  0.2+  0.4-

Ephemeris:
2024 CK6                 a,e,i = 2.02, 0.50, 10                  q = 1.0141
Date    TT    R. A. (2000) Decl.     Delta      r    Elong.  Phase     V
2024 01 16    04 52 58.2 -21 07 43   0.1470  1.0647   119.9    53.2    24.3
...
2024 01 31    05 16 33.2 -16 55 39   0.08139 1.0245   116.9    59.0    23.1
...
2024 02 08    06 05 15.0 -07 28 32   0.04810 1.0153   125.9    51.9    21.8
...
2024 02 14    07 50 41.5 +13 44 38   0.03046 1.0143   151.8    27.4    20.1
2024 02 15    08 20 24.3 +18 57 14   0.02926 1.0147   157.5    21.9    19.8
2024 02 16    08 53 57.6 +24 06 56   0.02881 1.0151   161.6    17.9    19.7
...
2024 02 22    12 15 41.1 +38 46 08   0.04051 1.0210   141.5    37.1    21.0
...
2024 03 01    14 02 39.7 +36 33 33   0.07274 1.0365   127.2    49.5    22.7
...
2024 03 16    14 43 41.6 +32 27 44   0.1410  1.0869   127.8    46.3    24.1

M. P. C. Staff               (C) Copyright 2024 MPC           M.P.E.C. 2024-C191





More information about the Iaude mailing list